When you browse on this site, cookies collect data to enhance your experience and personalize the content and advertising you see.
Visit our Privacy Policy to learn more. By continuing to use the site, you agree to this use of cookies and data.
  • In Spain
  • List of Countries
  • For 7 days
  • Water Temperature
  • Weather Map
  • Weather Widgets
  • user-avatar
    Login

    Hourly Weather Durres

    Today, 4 April, Saturday

    Time Temperature Precipitation Wind Pressure Humidity
    00:00 +9°C° 0.2 mm 5 mps 757 mmHg 90%
    01:00 +9°C° 0 mm 6 mps 757 mmHg 88%
    02:00 +9°C° 0.4 mm 6 mps 757 mmHg 87%
    03:00 +9°C° 0.4 mm 6 mps 757 mmHg 86%
    04:00 +9°C° 0.4 mm 6 mps 756 mmHg 85%
    05:00 +10°C° 0 mm 6 mps 756 mmHg 83%
    06:00 +10°C° 0 mm 6 mps 757 mmHg 81%
    07:00 +11°C° 0 mm 7 mps 757 mmHg 78%
    08:00 +12°C° 0 mm 7 mps 757 mmHg 71%
    09:00 +15°C° 0 mm 7 mps 757 mmHg 64%
    10:00 +17°C° 0 mm 7 mps 757 mmHg 57%
    11:00 +17°C° 0 mm 7 mps 756 mmHg 54%
    12:00 +18°C° 0 mm 8 mps 756 mmHg 51%
    13:00 +20°C° 0 mm 8 mps 756 mmHg 47%
    14:00 +18°C° 0 mm 8 mps 756 mmHg 49%
    15:00 +18°C° 0 mm 9 mps 756 mmHg 51%
    16:00 +17°C° 0 mm 9 mps 756 mmHg 54%
    17:00 +16°C° 0 mm 9 mps 756 mmHg 57%
    18:00 +13°C° 0 mm 8 mps 756 mmHg 60%
    19:00 +12°C° 0 mm 8 mps 756 mmHg 63%
    20:00 +11°C° 0 mm 8 mps 757 mmHg 64%
    21:00 +11°C° 0 mm 8 mps 757 mmHg 66%
    22:00 +10°C° 0 mm 7 mps 757 mmHg 68%
    23:00 +10°C° 0 mm 7 mps 757 mmHg 68%

    Tomorrow, 5 April, Sunday

    Time Temperature Precipitation Wind Pressure Humidity
    00:00 +10°C° 0 mm 7 mps 757 mmHg 68%
    01:00 +10°C° 0 mm 7 mps 757 mmHg 69%
    02:00 +10°C° 0 mm 7 mps 757 mmHg 69%
    03:00 +10°C° 0 mm 7 mps 757 mmHg 68%
    04:00 +10°C° 0 mm 7 mps 757 mmHg 68%
    05:00 +11°C° 0 mm 7 mps 757 mmHg 68%
    06:00 +11°C° 0 mm 7 mps 758 mmHg 69%
    07:00 +12°C° 0 mm 7 mps 758 mmHg 69%
    08:00 +13°C° 0 mm 8 mps 758 mmHg 64%
    09:00 +16°C° 0 mm 8 mps 759 mmHg 60%
    10:00 +17°C° 0 mm 8 mps 759 mmHg 56%
    11:00 +18°C° 0 mm 9 mps 759 mmHg 54%
    12:00 +18°C° 0 mm 9 mps 760 mmHg 51%
    13:00 +19°C° 0 mm 10 mps 760 mmHg 49%
    14:00 +18°C° 0 mm 9 mps 760 mmHg 51%
    15:00 +18°C° 0 mm 9 mps 760 mmHg 53%
    16:00 +17°C° 0 mm 9 mps 760 mmHg 55%
    17:00 +16°C° 0 mm 9 mps 761 mmHg 57%
    18:00 +13°C° 0 mm 8 mps 761 mmHg 59%
    19:00 +12°C° 0 mm 8 mps 762 mmHg 61%
    20:00 +12°C° 0 mm 8 mps 762 mmHg 63%
    21:00 +11°C° 0 mm 7 mps 763 mmHg 64%
    22:00 +11°C° 0 mm 7 mps 763 mmHg 65%
    23:00 +10°C° 0 mm 7 mps 764 mmHg 66%

    Day after tomorrow, 6 April, Monday

    Time Temperature Precipitation Wind Pressure Humidity
    00:00 +10°C° 0 mm 6 mps 764 mmHg 66%
    01:00 +10°C° 0 mm 6 mps 764 mmHg 67%
    02:00 +10°C° 0 mm 6 mps 764 mmHg 67%
    03:00 +10°C° 0 mm 6 mps 765 mmHg 67%
    04:00 +9°C° 0 mm 6 mps 765 mmHg 68%
    05:00 +10°C° 0 mm 6 mps 765 mmHg 67%
    06:00 +10°C° 0 mm 6 mps 765 mmHg 67%
    07:00 +11°C° 0 mm 7 mps 766 mmHg 66%
    08:00 +12°C° 0 mm 7 mps 766 mmHg 59%
    09:00 +15°C° 0 mm 7 mps 766 mmHg 52%
    10:00 +17°C° 0 mm 7 mps 766 mmHg 45%
    11:00 +17°C° 0 mm 6 mps 766 mmHg 43%
    12:00 +19°C° 0 mm 6 mps 766 mmHg 41%
    13:00 +20°C° 0 mm 6 mps 766 mmHg 39%
    14:00 +19°C° 0 mm 5 mps 766 mmHg 41%
    15:00 +19°C° 0 mm 5 mps 766 mmHg 43%
    16:00 +17°C° 0 mm 5 mps 766 mmHg 45%
    17:00 +16°C° 0 mm 5 mps 766 mmHg 48%
    18:00 +14°C° 0 mm 6 mps 766 mmHg 50%
    19:00 +11°C° 0 mm 7 mps 767 mmHg 52%
    20:00 +11°C° 0 mm 6 mps 767 mmHg 53%
    21:00 +11°C° 0 mm 6 mps 768 mmHg 53%
    22:00 +10°C° 0 mm 5 mps 768 mmHg 54%
    23:00 +10°C° 0 mm 5 mps 768 mmHg 55%

    7 April, Tuesday

    Time Temperature Precipitation Wind Pressure Humidity
    00:00 +10°C° 0 mm 5 mps 768 mmHg 55%
    01:00 +9°C° 0 mm 5 mps 768 mmHg 56%
    02:00 +9°C° 0 mm 5 mps 768 mmHg 56%
    03:00 +9°C° 0 mm 5 mps 768 mmHg 56%
    04:00 +8°C° 0 mm 6 mps 768 mmHg 56%
    05:00 +9°C° 0 mm 6 mps 768 mmHg 56%
    06:00 +10°C° 0 mm 6 mps 767 mmHg 56%
    07:00 +10°C° 0 mm 6 mps 767 mmHg 56%
    08:00 +13°C° 0 mm 5 mps 767 mmHg 49%
    09:00 +15°C° 0 mm 5 mps 767 mmHg 42%
    10:00 +17°C° 0 mm 5 mps 767 mmHg 34%
    11:00 +19°C° 0 mm 5 mps 767 mmHg 34%
    12:00 +20°C° 0 mm 5 mps 767 mmHg 33%
    13:00 +20°C° 0 mm 6 mps 767 mmHg 33%
    14:00 +20°C° 0 mm 6 mps 767 mmHg 35%
    15:00 +20°C° 0 mm 6 mps 767 mmHg 38%
    16:00 +20°C° 0 mm 6 mps 767 mmHg 40%
    17:00 +17°C° 0 mm 6 mps 767 mmHg 44%
    18:00 +15°C° 0 mm 6 mps 767 mmHg 47%
    19:00 +13°C° 0 mm 5 mps 768 mmHg 51%
    20:00 +12°C° 0 mm 5 mps 768 mmHg 50%
    21:00 +12°C° 0 mm 5 mps 768 mmHg 50%
    22:00 +10°C° 0 mm 5 mps 768 mmHg 50%
    23:00 +10°C° 0 mm 4 mps 768 mmHg 51%

    8 April, Wednesday

    Time Temperature Precipitation Wind Pressure Humidity
    00:00 +10°C° 0 mm 4 mps 768 mmHg 52%
    01:00 +10°C° 0 mm 4 mps 768 mmHg 54%
    02:00 +8°C° 0 mm 4 mps 768 mmHg 55%
    03:00 +8°C° 0 mm 4 mps 768 mmHg 56%
    04:00 +7°C° 0 mm 4 mps 768 mmHg 57%
    05:00 +8°C° 0 mm 5 mps 768 mmHg 57%
    06:00 +9°C° 0 mm 5 mps 768 mmHg 57%
    07:00 +10°C° 0 mm 5 mps 768 mmHg 57%
    08:00 +13°C° 0 mm 5 mps 767 mmHg 52%
    09:00 +15°C° 0 mm 5 mps 767 mmHg 46%
    10:00 +17°C° 0 mm 5 mps 767 mmHg 40%
    11:00 +19°C° 0 mm 5 mps 767 mmHg 39%
    12:00 +19°C° 0 mm 5 mps 766 mmHg 38%
    13:00 +20°C° 0 mm 6 mps 766 mmHg 36%
    14:00 +20°C° 0 mm 7 mps 765 mmHg 39%
    15:00 +18°C° 0 mm 7 mps 765 mmHg 42%
    16:00 +18°C° 0 mm 8 mps 765 mmHg 45%
    17:00 +16°C° 0 mm 8 mps 765 mmHg 53%
    18:00 +13°C° 0 mm 8 mps 765 mmHg 60%
    19:00 +11°C° 0 mm 8 mps 765 mmHg 68%
    20:00 +11°C° 0 mm 7 mps 765 mmHg 66%
    21:00 +10°C° 0 mm 6 mps 766 mmHg 65%
    22:00 +10°C° 0 mm 6 mps 766 mmHg 63%
    23:00 +10°C° 0 mm 5 mps 766 mmHg 61%

    9 April, Thursday

    Time Temperature Precipitation Wind Pressure Humidity
    00:00 +10°C° 0 mm 4 mps 766 mmHg 59%
    01:00 +10°C° 0 mm 4 mps 765 mmHg 56%
    02:00 +10°C° 0 mm 4 mps 765 mmHg 57%
    03:00 +8°C° 0 mm 4 mps 765 mmHg 57%
    04:00 +8°C° 0 mm 4 mps 765 mmHg 58%
    05:00 +10°C° 0 mm 4 mps 765 mmHg 58%
    06:00 +11°C° 0 mm 4 mps 765 mmHg 58%
    07:00 +12°C° 0 mm 4 mps 765 mmHg 58%
    08:00 +14°C° 0 mm 4 mps 765 mmHg 53%
    09:00 +17°C° 0 mm 4 mps 765 mmHg 48%
    10:00 +19°C° 0 mm 4 mps 765 mmHg 43%
    11:00 +20°C° 0 mm 5 mps 764 mmHg 43%
    12:00 +21°C° 0 mm 5 mps 764 mmHg 42%
    13:00 +21°C° 0 mm 6 mps 764 mmHg 42%
    14:00 +21°C° 0 mm 6 mps 764 mmHg 46%
    15:00 +20°C° 0 mm 7 mps 763 mmHg 50%
    16:00 +18°C° 0 mm 8 mps 763 mmHg 54%
    17:00 +16°C° 0 mm 8 mps 763 mmHg 61%
    18:00 +14°C° 0 mm 7 mps 763 mmHg 67%
    19:00 +12°C° 0 mm 7 mps 764 mmHg 74%
    20:00 +11°C° 0 mm 7 mps 764 mmHg 73%
    21:00 +11°C° 0 mm 6 mps 764 mmHg 73%
    22:00 +12°C° 0 mm 5 mps 765 mmHg 72%
    23:00 +10°C° 0 mm 5 mps 765 mmHg 70%
    Show more